Wetterdaten: Freitag, 05.06.2015
Datum Zeit Auen-Temp. Temp gefhlt Luftfeuchte Luftdruck Regen Wind Richtung Richtung Taupunkt Windben
05.06.2015 00:00 14,5 C 14,4 C 79 % 1023,0 hPa 0,0 mm 0,0 km/h (0 Bft) S 180 10,9 C 0,0 km/h (0 Bft)
05.06.2015 00:05 14,5 C 14,4 C 79 % 1023,0 hPa 0,0 mm 0,0 km/h (0 Bft) S 180 10,9 C 0,0 km/h (0 Bft)
05.06.2015 00:10 14,5 C 14,4 C 80 % 1023,0 hPa 0,0 mm 0,0 km/h (0 Bft) S 180 11,1 C 0,0 km/h (0 Bft)
05.06.2015 00:15 14,5 C 14,3 C 80 % 1023,0 hPa 0,0 mm 0,0 km/h (0 Bft) SO 135 11,1 C 0,0 km/h (0 Bft)
05.06.2015 00:20 14,4 C 14,3 C 81 % 1022,8 hPa 0,0 mm 0,0 km/h (0 Bft) S-SW 202 11,2 C 0,0 km/h (0 Bft)
05.06.2015 00:25 14,3 C 14,3 C 81 % 1022,8 hPa 0,0 mm 0,0 km/h (0 Bft) S-SO 157 11,1 C 0,0 km/h (0 Bft)
05.06.2015 00:30 14,3 C 14,2 C 81 % 1022,8 hPa 0,0 mm 0,0 km/h (0 Bft) SO 135 11,1 C 0,0 km/h (0 Bft)
05.06.2015 00:35 14,6 C 14,5 C 82 % 1022,8 hPa 0,0 mm 0,0 km/h (0 Bft) SW 225 11,6 C 0,0 km/h (0 Bft)
05.06.2015 00:40 14,6 C 14,5 C 82 % 1022,9 hPa 0,0 mm 0,0 km/h (0 Bft) S-SO 157 11,6 C 0,0 km/h (0 Bft)
05.06.2015 00:45 15,0 C 14,9 C 79 % 1022,9 hPa 0,0 mm 0,0 km/h (0 Bft) SO 135 11,4 C 0,0 km/h (0 Bft)
05.06.2015 00:50 14,8 C 14,8 C 82 % 1022,9 hPa 0,0 mm 0,0 km/h (0 Bft) SO 135 11,8 C 0,0 km/h (0 Bft)
05.06.2015 00:55 14,4 C 14,5 C 82 % 1022,9 hPa 0,0 mm 0,0 km/h (0 Bft) S-SO 157 11,4 C 0,0 km/h (0 Bft)
05.06.2015 01:00 14,2 C 14,3 C 82 % 1022,8 hPa 0,0 mm 0,0 km/h (0 Bft) N 360 11,2 C 0,0 km/h (0 Bft)
05.06.2015 01:05 14,1 C 14,2 C 82 % 1022,8 hPa 0,0 mm 0,0 km/h (0 Bft) N 360 11,1 C 0,0 km/h (0 Bft)
05.06.2015 01:10 14,7 C 14,5 C 83 % 1022,8 hPa 0,0 mm 0,0 km/h (0 Bft) NO 45 11,8 C 0,0 km/h (0 Bft)
05.06.2015 01:15 14,9 C 14,8 C 80 % 1022,8 hPa 0,0 mm 0,0 km/h (0 Bft) N-NO 22 11,5 C 0,0 km/h (0 Bft)
05.06.2015 01:20 14,3 C 14,3 C 82 % 1022,9 hPa 0,0 mm 0,0 km/h (0 Bft) O-SO 112 11,3 C 0,0 km/h (0 Bft)
05.06.2015 01:25 14,2 C 14,1 C 82 % 1022,9 hPa 0,0 mm 0,0 km/h (0 Bft) NO 45 11,2 C 0,0 km/h (0 Bft)
05.06.2015 01:30 14,2 C 14,0 C 82 % 1022,9 hPa 0,0 mm 0,0 km/h (0 Bft) NO 45 11,2 C 0,0 km/h (0 Bft)
05.06.2015 01:35 14,1 C 14,0 C 82 % 1022,9 hPa 0,0 mm 0,0 km/h (0 Bft) S-SO 157 11,1 C 0,0 km/h (0 Bft)
05.06.2015 01:40 13,9 C 13,8 C 82 % 1022,8 hPa 0,0 mm 0,0 km/h (0 Bft) S-SO 157 10,9 C 0,0 km/h (0 Bft)
05.06.2015 01:45 13,9 C 13,8 C 83 % 1022,8 hPa 0,0 mm 0,0 km/h (0 Bft) S-SO 157 11,1 C 0,0 km/h (0 Bft)
05.06.2015 01:50 13,6 C 13,5 C 82 % 1022,8 hPa 0,0 mm 0,0 km/h (0 Bft) S-SO 157 10,6 C 0,0 km/h (0 Bft)
05.06.2015 01:55 13,6 C 13,5 C 83 % 1022,8 hPa 0,0 mm 0,0 km/h (0 Bft) S-SO 157 10,8 C 0,0 km/h (0 Bft)
05.06.2015 02:00 13,5 C 13,4 C 83 % 1022,7 hPa 0,0 mm 0,0 km/h (0 Bft) S-SO 157 10,7 C 0,0 km/h (0 Bft)
05.06.2015 02:05 13,4 C 13,3 C 83 % 1022,7 hPa 0,0 mm 0,0 km/h (0 Bft) S-SO 157 10,6 C 0,0 km/h (0 Bft)
05.06.2015 02:10 13,4 C 13,3 C 83 % 1022,7 hPa 0,0 mm 0,0 km/h (0 Bft) S-SO 157 10,6 C 0,0 km/h (0 Bft)
05.06.2015 02:15 13,3 C 13,2 C 83 % 1022,7 hPa 0,0 mm 0,0 km/h (0 Bft) S-SO 157 10,5 C 0,0 km/h (0 Bft)
05.06.2015 02:20 13,4 C 13,2 C 84 % 1022,6 hPa 0,0 mm 0,0 km/h (0 Bft) S-SO 157 10,8 C 0,0 km/h (0 Bft)
05.06.2015 02:25 13,2 C 13,1 C 84 % 1022,6 hPa 0,0 mm 0,0 km/h (0 Bft) S-SO 157 10,6 C 0,0 km/h (0 Bft)
05.06.2015 02:30 13,2 C 13,1 C 84 % 1022,6 hPa 0,0 mm 0,0 km/h (0 Bft) NW 315 10,6 C 0,0 km/h (0 Bft)
05.06.2015 02:35 13,2 C 13,0 C 84 % 1022,6 hPa 0,0 mm 0,0 km/h (0 Bft) NW 315 10,6 C 0,0 km/h (0 Bft)
05.06.2015 02:40 13,1 C 12,9 C 84 % 1022,3 hPa 0,0 mm 0,0 km/h (0 Bft) NW 315 10,5 C 0,0 km/h (0 Bft)
05.06.2015 02:45 13,1 C 12,9 C 84 % 1022,3 hPa 0,0 mm 0,0 km/h (0 Bft) NW 315 10,5 C 0,0 km/h (0 Bft)
05.06.2015 02:50 12,9 C 12,8 C 85 % 1022,3 hPa 0,0 mm 0,0 km/h (0 Bft) NW 315 10,4 C 0,0 km/h (0 Bft)
05.06.2015 02:55 12,8 C 12,7 C 85 % 1022,3 hPa 0,0 mm 0,0 km/h (0 Bft) NW 315 10,3 C 0,0 km/h (0 Bft)
05.06.2015 03:00 12,8 C 12,7 C 85 % 1022,3 hPa 0,0 mm 0,0 km/h (0 Bft) NW 315 10,3 C 0,0 km/h (0 Bft)
05.06.2015 03:05 12,9 C 12,7 C 85 % 1022,3 hPa 0,0 mm 0,0 km/h (0 Bft) S 180 10,4 C 0,0 km/h (0 Bft)
05.06.2015 03:10 12,8 C 12,7 C 86 % 1022,3 hPa 0,0 mm 0,0 km/h (0 Bft) S 180 10,5 C 0,0 km/h (0 Bft)
05.06.2015 03:15 12,6 C 12,5 C 85 % 1022,3 hPa 0,0 mm 0,0 km/h (0 Bft) S 180 10,1 C 0,0 km/h (0 Bft)
05.06.2015 03:20 12,6 C 12,5 C 86 % 1022,1 hPa 0,0 mm 0,0 km/h (0 Bft) S 180 10,3 C 0,0 km/h (0 Bft)
05.06.2015 03:25 12,5 C 12,4 C 86 % 1022,1 hPa 0,0 mm 0,0 km/h (0 Bft) S 180 10,2 C 0,0 km/h (0 Bft)
05.06.2015 03:30 12,6 C 12,5 C 86 % 1022,1 hPa 0,0 mm 0,0 km/h (0 Bft) S-SO 157 10,3 C 0,0 km/h (0 Bft)
05.06.2015 03:35 12,7 C 12,6 C 87 % 1022,1 hPa 0,0 mm 0,5 km/h (0 Bft) S 180 10,6 C 0,0 km/h (0 Bft)
05.06.2015 03:40 13,1 C 13,1 C 84 % 1022,0 hPa 0,0 mm 0,8 km/h (0 Bft) S-SO 157 10,5 C 0,0 km/h (0 Bft)
05.06.2015 03:45 13,2 C 13,1 C 84 % 1022,0 hPa 0,0 mm 1,0 km/h (0 Bft) S 180 10,6 C 4,4 km/h (1 Bft)
05.06.2015 03:50 13,2 C 13,2 C 84 % 1022,0 hPa 0,0 mm 2,6 km/h (1 Bft) S 180 10,6 C 3,9 km/h (1 Bft)
05.06.2015 03:55 13,3 C 13,3 C 84 % 1022,0 hPa 0,0 mm 2,6 km/h (1 Bft) S 180 10,7 C 0,0 km/h (0 Bft)
05.06.2015 04:00 13,0 C 12,9 C 87 % 1022,1 hPa 0,0 mm 1,0 km/h (0 Bft) N-NO 22 10,9 C 0,0 km/h (0 Bft)
05.06.2015 04:05 12,8 C 12,7 C 87 % 1022,1 hPa 0,0 mm 0,3 km/h (0 Bft) O-NO 67 10,7 C 0,0 km/h (0 Bft)
05.06.2015 04:10 12,7 C 12,6 C 87 % 1022,1 hPa 0,0 mm 0,0 km/h (0 Bft) O-NO 67 10,6 C 0,0 km/h (0 Bft)
05.06.2015 04:15 12,6 C 12,5 C 87 % 1022,1 hPa 0,0 mm 0,0 km/h (0 Bft) O-NO 67 10,5 C 0,0 km/h (0 Bft)
05.06.2015 04:20 12,4 C 12,3 C 87 % 1022,0 hPa 0,0 mm 0,0 km/h (0 Bft) O-NO 67 10,3 C 0,0 km/h (0 Bft)
05.06.2015 04:25 12,5 C 12,3 C 87 % 1022,0 hPa 0,0 mm 0,0 km/h (0 Bft) O-NO 67 10,4 C 0,0 km/h (0 Bft)
05.06.2015 04:30 12,3 C 12,2 C 87 % 1022,0 hPa 0,0 mm 0,0 km/h (0 Bft) O-NO 67 10,2 C 0,0 km/h (0 Bft)
05.06.2015 04:35 12,3 C 12,2 C 87 % 1022,0 hPa 0,0 mm 0,0 km/h (0 Bft) O-SO 112 10,2 C 0,0 km/h (0 Bft)
05.06.2015 04:40 12,3 C 12,2 C 87 % 1021,8 hPa 0,0 mm 0,0 km/h (0 Bft) S 180 10,2 C 0,0 km/h (0 Bft)
05.06.2015 04:45 12,2 C 12,1 C 87 % 1021,8 hPa 0,0 mm 0,0 km/h (0 Bft) SW 225 10,1 C 0,0 km/h (0 Bft)
05.06.2015 04:50 12,0 C 11,9 C 87 % 1021,8 hPa 0,0 mm 0,0 km/h (0 Bft) NW 315 9,9 C 0,0 km/h (0 Bft)
05.06.2015 04:55 11,9 C 11,8 C 87 % 1021,8 hPa 0,0 mm 0,0 km/h (0 Bft) W 270 9,8 C 0,0 km/h (0 Bft)
05.06.2015 05:00 11,8 C 11,7 C 87 % 1021,8 hPa 0,0 mm 0,0 km/h (0 Bft) NW 315 9,7 C 0,0 km/h (0 Bft)
05.06.2015 05:05 11,7 C 11,6 C 87 % 1021,8 hPa 0,0 mm 0,0 km/h (0 Bft) NW 315 9,6 C 0,0 km/h (0 Bft)
05.06.2015 05:10 11,8 C 11,7 C 87 % 1021,8 hPa 0,0 mm 0,0 km/h (0 Bft) NW 315 9,7 C 0,0 km/h (0 Bft)
05.06.2015 05:15 11,8 C 11,7 C 87 % 1021,8 hPa 0,0 mm 0,0 km/h (0 Bft) NW 315 9,7 C 0,0 km/h (0 Bft)
05.06.2015 05:20 11,7 C 11,6 C 87 % 1021,7 hPa 0,0 mm 0,0 km/h (0 Bft) NW 315 9,6 C 0,0 km/h (0 Bft)
05.06.2015 05:25 11,7 C 11,6 C 87 % 1021,7 hPa 0,0 mm 0,0 km/h (0 Bft) NW 315 9,6 C 0,0 km/h (0 Bft)
05.06.2015 05:30 11,9 C 11,7 C 88 % 1021,7 hPa 0,0 mm 0,0 km/h (0 Bft) NW 315 10,0 C 0,0 km/h (0 Bft)
05.06.2015 05:35 11,9 C 11,8 C 88 % 1021,7 hPa 0,0 mm 0,0 km/h (0 Bft) NW 315 10,0 C 0,0 km/h (0 Bft)
05.06.2015 05:40 11,9 C 11,8 C 88 % 1021,8 hPa 0,0 mm 0,0 km/h (0 Bft) NW 315 10,0 C 0,0 km/h (0 Bft)
05.06.2015 05:45 11,9 C 11,9 C 88 % 1021,8 hPa 0,0 mm 0,0 km/h (0 Bft) NW 315 10,0 C 0,0 km/h (0 Bft)
05.06.2015 05:50 11,9 C 12,0 C 88 % 1021,8 hPa 0,0 mm 0,0 km/h (0 Bft) NW 315 10,0 C 0,0 km/h (0 Bft)
05.06.2015 05:55 11,9 C 12,2 C 88 % 1021,8 hPa 0,0 mm 0,0 km/h (0 Bft) W 270 10,0 C 0,0 km/h (0 Bft)
05.06.2015 06:00 12,2 C 13,1 C 88 % 1021,9 hPa 0,0 mm 0,0 km/h (0 Bft) NW 315 10,3 C 0,0 km/h (0 Bft)
05.06.2015 06:05 12,3 C 13,4 C 88 % 1021,9 hPa 0,0 mm 0,0 km/h (0 Bft) NW 315 10,4 C 0,0 km/h (0 Bft)
05.06.2015 06:10 12,8 C 14,9 C 88 % 1021,9 hPa 0,0 mm 0,0 km/h (0 Bft) NO 45 10,9 C 0,0 km/h (0 Bft)
05.06.2015 06:15 13,0 C 15,4 C 85 % 1021,9 hPa 0,0 mm 0,0 km/h (0 Bft) NO 45 10,5 C 0,0 km/h (0 Bft)
05.06.2015 06:20 13,2 C 16,7 C 85 % 1021,8 hPa 0,0 mm 0,0 km/h (0 Bft) O 90 10,7 C 0,0 km/h (0 Bft)
05.06.2015 06:25 13,8 C 17,6 C 85 % 1021,8 hPa 0,0 mm 0,0 km/h (0 Bft) O 90 11,3 C 0,0 km/h (0 Bft)
05.06.2015 06:30 14,2 C 19,1 C 84 % 1021,8 hPa 0,0 mm 0,0 km/h (0 Bft) O 90 11,5 C 0,0 km/h (0 Bft)
05.06.2015 06:35 14,6 C 19,5 C 84 % 1021,8 hPa 0,0 mm 0,0 km/h (0 Bft) O 90 11,9 C 0,0 km/h (0 Bft)
05.06.2015 06:40 15,1 C 20,2 C 83 % 1022,0 hPa 0,0 mm 0,0 km/h (0 Bft) O 90 12,2 C 0,0 km/h (0 Bft)
05.06.2015 06:45 15,2 C 20,4 C 86 % 1022,0 hPa 0,0 mm 0,5 km/h (0 Bft) N-NO 22 12,9 C 4,1 km/h (1 Bft)
05.06.2015 06:50 16,0 C 20,9 C 84 % 1022,0 hPa 0,0 mm 0,5 km/h (0 Bft) NW 315 13,3 C 0,0 km/h (0 Bft)
05.06.2015 06:55 16,3 C 22,0 C 84 % 1022,0 hPa 0,0 mm 0,5 km/h (0 Bft) N-NW 337 13,6 C 0,0 km/h (0 Bft)
05.06.2015 07:00 16,7 C 23,4 C 80 % 1021,9 hPa 0,0 mm 0,0 km/h (0 Bft) N-NO 22 13,2 C 0,0 km/h (0 Bft)
05.06.2015 07:05 17,0 C 24,0 C 81 % 1021,9 hPa 0,0 mm 0,0 km/h (0 Bft) N-NO 22 13,7 C 0,0 km/h (0 Bft)
05.06.2015 07:10 17,3 C 25,0 C 80 % 1021,9 hPa 0,0 mm 0,0 km/h (0 Bft) N-NO 22 13,8 C 0,0 km/h (0 Bft)
05.06.2015 07:15 17,4 C 25,3 C 78 % 1021,9 hPa 0,0 mm 0,0 km/h (0 Bft) N-NO 22 13,5 C 0,0 km/h (0 Bft)
05.06.2015 07:20 18,2 C 26,0 C 76 % 1021,9 hPa 0,0 mm 0,0 km/h (0 Bft) N-NO 22 13,9 C 0,0 km/h (0 Bft)
05.06.2015 07:25 18,4 C 26,6 C 77 % 1021,9 hPa 0,0 mm 0,0 km/h (0 Bft) N-NO 22 14,3 C 0,0 km/h (0 Bft)
05.06.2015 07:30 19,2 C 26,7 C 77 % 1021,9 hPa 0,0 mm 0,0 km/h (0 Bft) N-NO 22 15,1 C 0,0 km/h (0 Bft)
05.06.2015 07:35 19,6 C 27,6 C 76 % 1021,9 hPa 0,0 mm 0,0 km/h (0 Bft) N-NO 22 15,2 C 0,0 km/h (0 Bft)
05.06.2015 07:40 20,3 C 28,7 C 72 % 1021,8 hPa 0,0 mm 0,0 km/h (0 Bft) N-NO 22 15,1 C 0,0 km/h (0 Bft)
05.06.2015 07:45 20,1 C 28,7 C 72 % 1021,8 hPa 0,0 mm 0,0 km/h (0 Bft) SO 135 14,9 C 0,0 km/h (0 Bft)
05.06.2015 07:50 20,2 C 29,4 C 71 % 1021,8 hPa 0,0 mm 0,0 km/h (0 Bft) SO 135 14,8 C 0,0 km/h (0 Bft)
05.06.2015 07:55 20,3 C 30,1 C 71 % 1021,8 hPa 0,0 mm 0,0 km/h (0 Bft) SO 135 14,9 C 0,0 km/h (0 Bft)
05.06.2015 08:00 20,8 C 29,9 C 70 % 1021,4 hPa 0,0 mm 0,0 km/h (0 Bft) O-NO 67 15,1 C 0,0 km/h (0 Bft)
05.06.2015 08:05 21,2 C 29,7 C 70 % 1021,4 hPa 0,0 mm 0,0 km/h (0 Bft) O-NO 67 15,5 C 0,0 km/h (0 Bft)
05.06.2015 08:10 21,5 C 29,3 C 69 % 1021,4 hPa 0,0 mm 0,5 km/h (0 Bft) O-NO 67 15,6 C 0,0 km/h (0 Bft)
05.06.2015 08:15 21,7 C 29,6 C 68 % 1021,4 hPa 0,0 mm 0,5 km/h (0 Bft) O-NO 67 15,5 C 0,0 km/h (0 Bft)
05.06.2015 08:20 22,1 C 29,9 C 68 % 1021,3 hPa 0,0 mm 0,0 km/h (0 Bft) NO 45 15,9 C 0,0 km/h (0 Bft)
05.06.2015 08:25 23,2 C 30,8 C 67 % 1021,3 hPa 0,0 mm 0,0 km/h (0 Bft) NW 315 16,7 C 0,0 km/h (0 Bft)
05.06.2015 08:30 23,3 C 31,9 C 66 % 1021,3 hPa 0,0 mm 0,0 km/h (0 Bft) W-NW 292 16,6 C 0,0 km/h (0 Bft)
05.06.2015 08:35 23,7 C 31,9 C 65 % 1021,3 hPa 0,0 mm 0,5 km/h (0 Bft) NW 315 16,7 C 0,0 km/h (0 Bft)
05.06.2015 08:40 23,7 C 31,3 C 65 % 1021,4 hPa 0,0 mm 1,8 km/h (1 Bft) N 360 16,7 C 4,7 km/h (1 Bft)
05.06.2015 08:45 23,7 C 31,3 C 64 % 1021,4 hPa 0,0 mm 2,3 km/h (1 Bft) N-NO 22 16,5 C 4,9 km/h (1 Bft)
05.06.2015 08:50 24,1 C 31,7 C 63 % 1021,4 hPa 0,0 mm 1,0 km/h (0 Bft) NO 45 16,6 C 0,0 km/h (0 Bft)
05.06.2015 08:55 24,4 C 31,7 C 63 % 1021,4 hPa 0,0 mm 1,3 km/h (1 Bft) N-NO 22 16,9 C 4,9 km/h (1 Bft)
05.06.2015 09:00 24,2 C 31,2 C 63 % 1021,6 hPa 0,0 mm 3,1 km/h (1 Bft) N-NO 22 16,7 C 4,1 km/h (1 Bft)
05.06.2015 09:05 24,2 C 31,1 C 63 % 1021,6 hPa 0,0 mm 4,1 km/h (1 Bft) NW 315 16,7 C 8,8 km/h (2 Bft)
05.06.2015 09:10 24,2 C 30,4 C 63 % 1021,6 hPa 0,0 mm 4,4 km/h (1 Bft) O 90 16,7 C 4,9 km/h (1 Bft)
05.06.2015 09:15 24,3 C 30,4 C 63 % 1021,6 hPa 0,0 mm 4,1 km/h (1 Bft) N-NO 22 16,8 C 4,7 km/h (1 Bft)
05.06.2015 09:20 24,1 C 30,3 C 63 % 1021,9 hPa 0,0 mm 3,9 km/h (1 Bft) N-NO 22 16,6 C 6,5 km/h (2 Bft)
05.06.2015 09:25 24,2 C 30,4 C 62 % 1021,9 hPa 0,0 mm 4,4 km/h (1 Bft) N-NO 22 16,4 C 4,1 km/h (1 Bft)
05.06.2015 09:30 24,5 C 30,8 C 61 % 1021,9 hPa 0,0 mm 3,6 km/h (1 Bft) NO 45 16,5 C 2,8 km/h (1 Bft)
05.06.2015 09:35 24,8 C 31,1 C 60 % 1021,9 hPa 0,0 mm 2,8 km/h (1 Bft) NO 45 16,5 C 7,0 km/h (2 Bft)
05.06.2015 09:40 24,7 C 30,8 C 60 % 1022,2 hPa 0,0 mm 2,6 km/h (1 Bft) S-SW 202 16,4 C 0,0 km/h (0 Bft)
05.06.2015 09:45 24,9 C 30,9 C 60 % 1022,2 hPa 0,0 mm 2,8 km/h (1 Bft) NW 315 16,6 C 5,2 km/h (1 Bft)
05.06.2015 09:50 25,4 C 31,2 C 59 % 1022,2 hPa 0,0 mm 3,6 km/h (1 Bft) N-NW 337 16,8 C 11,7 km/h (2 Bft)
05.06.2015 09:55 25,5 C 31,2 C 59 % 1022,2 hPa 0,0 mm 5,2 km/h (1 Bft) NW 315 16,9 C 12,4 km/h (3 Bft)
05.06.2015 10:00 25,5 C 31,7 C 58 % 1022,4 hPa 0,0 mm 4,4 km/h (1 Bft) O-NO 67 16,6 C 3,1 km/h (1 Bft)
05.06.2015 10:05 25,4 C 31,7 C 58 % 1022,4 hPa 0,0 mm 3,4 km/h (1 Bft) O-NO 67 16,5 C 5,4 km/h (1 Bft)
05.06.2015 10:10 25,5 C 31,3 C 58 % 1022,4 hPa 0,0 mm 4,1 km/h (1 Bft) O-SO 112 16,6 C 3,9 km/h (1 Bft)
05.06.2015 10:15 25,6 C 31,7 C 59 % 1022,4 hPa 0,0 mm 3,4 km/h (1 Bft) N-NO 22 17,0 C 8,0 km/h (2 Bft)
05.06.2015 10:20 25,6 C 31,4 C 58 % 1022,6 hPa 0,0 mm 3,1 km/h (1 Bft) O-NO 67 16,7 C 5,2 km/h (1 Bft)
05.06.2015 10:25 25,6 C 31,5 C 56 % 1022,6 hPa 0,0 mm 3,9 km/h (1 Bft) NO 45 16,2 C 6,0 km/h (2 Bft)
05.06.2015 10:30 25,5 C 31,5 C 57 % 1022,6 hPa 0,0 mm 3,1 km/h (1 Bft) O 90 16,3 C 3,6 km/h (1 Bft)
05.06.2015 10:35 25,7 C 31,7 C 57 % 1022,6 hPa 0,0 mm 2,6 km/h (1 Bft) W-NW 292 16,5 C 9,8 km/h (2 Bft)
05.06.2015 10:40 26,0 C 31,7 C 55 % 1022,4 hPa 0,0 mm 3,6 km/h (1 Bft) W-SW 247 16,2 C 11,1 km/h (2 Bft)
05.06.2015 10:45 26,2 C 31,7 C 55 % 1022,4 hPa 0,0 mm 5,4 km/h (1 Bft) N-NW 337 16,4 C 13,5 km/h (3 Bft)
05.06.2015 10:50 26,3 C 31,4 C 56 % 1022,4 hPa 0,0 mm 5,2 km/h (1 Bft) N-NO 22 16,8 C 4,4 km/h (1 Bft)
05.06.2015 10:55 26,2 C 31,5 C 55 % 1022,4 hPa 0,0 mm 4,7 km/h (1 Bft) N-NO 22 16,4 C 13,5 km/h (3 Bft)
05.06.2015 11:00 26,2 C 32,0 C 54 % 1022,9 hPa 0,0 mm 2,3 km/h (1 Bft) W-SW 247 16,1 C 0,0 km/h (0 Bft)
05.06.2015 11:05 26,2 C 32,3 C 53 % 1022,9 hPa 0,0 mm 2,3 km/h (1 Bft) O-SO 112 15,8 C 0,0 km/h (0 Bft)
05.06.2015 11:10 26,3 C 32,1 C 54 % 1022,9 hPa 0,0 mm 3,6 km/h (1 Bft) N-NW 337 16,2 C 7,0 km/h (2 Bft)
05.06.2015 11:15 26,4 C 32,0 C 54 % 1022,9 hPa 0,0 mm 4,1 km/h (1 Bft) W-NW 292 16,3 C 3,9 km/h (1 Bft)
05.06.2015 11:20 26,6 C 32,3 C 54 % 1022,7 hPa 0,0 mm 4,7 km/h (1 Bft) W-NW 292 16,5 C 4,1 km/h (1 Bft)
05.06.2015 11:25 26,9 C 32,2 C 53 % 1022,7 hPa 0,0 mm 3,6 km/h (1 Bft) O-NO 67 16,5 C 0,0 km/h (0 Bft)
05.06.2015 11:30 26,8 C 32,3 C 52 % 1022,7 hPa 0,0 mm 2,8 km/h (1 Bft) O-NO 67 16,1 C 0,0 km/h (0 Bft)
05.06.2015 11:35 26,9 C 32,3 C 51 % 1022,7 hPa 0,0 mm 3,9 km/h (1 Bft) N-NO 22 15,9 C 8,3 km/h (2 Bft)
05.06.2015 11:40 26,9 C 32,0 C 53 % 1022,9 hPa 0,0 mm 5,2 km/h (1 Bft) N-NW 337 16,5 C 6,2 km/h (2 Bft)
05.06.2015 11:45 26,9 C 32,0 C 53 % 1022,9 hPa 0,0 mm 5,2 km/h (1 Bft) NO 45 16,5 C 17,1 km/h (3 Bft)
05.06.2015 11:50 27,2 C 32,3 C 53 % 1022,9 hPa 0,0 mm 4,1 km/h (1 Bft) NO 45 16,8 C 7,3 km/h (2 Bft)
05.06.2015 11:55 27,2 C 32,4 C 52 % 1022,9 hPa 0,0 mm 2,8 km/h (1 Bft) O-SO 112 16,5 C 2,8 km/h (1 Bft)
05.06.2015 12:00 27,2 C 32,5 C 53 % 1023,0 hPa 0,0 mm 4,7 km/h (1 Bft) W-NW 292 16,8 C 10,1 km/h (2 Bft)
05.06.2015 12:05 27,2 C 32,2 C 53 % 1023,0 hPa 0,0 mm 5,4 km/h (1 Bft) NW 315 16,8 C 6,7 km/h (2 Bft)
05.06.2015 12:10 27,4 C 31,5 C 54 % 1023,0 hPa 0,0 mm 7,5 km/h (2 Bft) N-NW 337 17,3 C 8,8 km/h (2 Bft)
05.06.2015 12:15 27,4 C 31,4 C 53 % 1023,0 hPa 0,0 mm 7,3 km/h (2 Bft) N-NW 337 17,0 C 6,7 km/h (2 Bft)
05.06.2015 12:20 27,2 C 31,2 C 53 % 1022,9 hPa 0,0 mm 7,3 km/h (2 Bft) N 360 16,8 C 8,3 km/h (2 Bft)
05.06.2015 12:25 27,2 C 31,2 C 54 % 1022,9 hPa 0,0 mm 6,5 km/h (2 Bft) N-NO 22 17,1 C 10,9 km/h (2 Bft)
05.06.2015 12:30 27,2 C 31,2 C 53 % 1022,9 hPa 0,0 mm 6,7 km/h (2 Bft) NW 315 16,8 C 8,3 km/h (2 Bft)
05.06.2015 12:35 27,2 C 31,4 C 54 % 1022,9 hPa 0,0 mm 6,5 km/h (2 Bft) N-NO 22 17,1 C 2,8 km/h (1 Bft)
05.06.2015 12:40 26,7 C 30,1 C 55 % 1022,9 hPa 0,0 mm 7,3 km/h (2 Bft) NO 45 16,9 C 10,1 km/h (2 Bft)
05.06.2015 12:45 26,9 C 30,5 C 55 % 1022,9 hPa 0,0 mm 6,7 km/h (2 Bft) NO 45 17,1 C 9,8 km/h (2 Bft)
05.06.2015 12:50 27,2 C 31,5 C 53 % 1022,9 hPa 0,0 mm 4,9 km/h (1 Bft) O-NO 67 16,8 C 5,4 km/h (1 Bft)
05.06.2015 12:55 27,1 C 31,8 C 54 % 1022,9 hPa 0,0 mm 4,7 km/h (1 Bft) N-NO 22 17,0 C 10,4 km/h (2 Bft)
05.06.2015 13:00 27,1 C 31,0 C 54 % 1022,6 hPa 0,0 mm 5,7 km/h (1 Bft) W-SW 247 17,0 C 5,7 km/h (1 Bft)
05.06.2015 13:05 27,3 C 30,5 C 54 % 1022,6 hPa 0,0 mm 5,7 km/h (1 Bft) N-NW 337 17,2 C 4,1 km/h (1 Bft)
05.06.2015 13:10 27,6 C 30,1 C 53 % 1022,6 hPa 0,0 mm 6,7 km/h (2 Bft) N-NW 337 17,1 C 12,2 km/h (2 Bft)
05.06.2015 13:15 27,7 C 29,8 C 53 % 1022,6 hPa 0,0 mm 8,3 km/h (2 Bft) N-NW 337 17,2 C 7,3 km/h (2 Bft)
05.06.2015 13:20 28,1 C 30,3 C 53 % 1022,6 hPa 0,0 mm 6,7 km/h (2 Bft) NO 45 17,6 C 4,7 km/h (1 Bft)
05.06.2015 13:25 27,9 C 30,8 C 53 % 1022,6 hPa 0,0 mm 5,2 km/h (1 Bft) O-SO 112 17,4 C 8,5 km/h (2 Bft)
05.06.2015 13:30 27,4 C 31,1 C 52 % 1022,6 hPa 0,0 mm 6,5 km/h (2 Bft) O 90 16,7 C 5,7 km/h (1 Bft)
05.06.2015 13:35 27,3 C 31,2 C 53 % 1022,6 hPa 0,0 mm 6,5 km/h (2 Bft) N-NW 337 16,9 C 13,5 km/h (3 Bft)
05.06.2015 13:40 27,5 C 31,1 C 52 % 1022,4 hPa 0,0 mm 7,0 km/h (2 Bft) NW 315 16,7 C 14,8 km/h (3 Bft)
05.06.2015 13:45 27,6 C 31,2 C 51 % 1022,4 hPa 0,0 mm 8,0 km/h (2 Bft) N-NW 337 16,5 C 10,9 km/h (2 Bft)
05.06.2015 13:50 27,8 C 31,6 C 51 % 1022,4 hPa 0,0 mm 7,3 km/h (2 Bft) NO 45 16,7 C 10,6 km/h (2 Bft)
05.06.2015 13:55 27,7 C 31,7 C 52 % 1022,4 hPa 0,0 mm 7,5 km/h (2 Bft) N 360 16,9 C 9,3 km/h (2 Bft)
05.06.2015 14:00 28,1 C 31,5 C 52 % 1022,4 hPa 0,0 mm 8,8 km/h (2 Bft) W 270 17,3 C 5,7 km/h (1 Bft)
05.06.2015 14:05 28,4 C 31,9 C 52 % 1022,4 hPa 0,0 mm 7,3 km/h (2 Bft) SW 225 17,6 C 17,6 km/h (3 Bft)
05.06.2015 14:10 28,6 C 32,1 C 50 % 1022,4 hPa 0,0 mm 6,0 km/h (2 Bft) NO 45 17,1 C 5,2 km/h (1 Bft)
05.06.2015 14:15 28,5 C 32,3 C 50 % 1022,4 hPa 0,0 mm 6,2 km/h (2 Bft) N-NW 337 17,0 C 8,5 km/h (2 Bft)
05.06.2015 14:20 28,4 C 32,5 C 50 % 1022,2 hPa 0,0 mm 6,5 km/h (2 Bft) N-NO 22 17,0 C 17,6 km/h (3 Bft)
05.06.2015 14:25 28,1 C 32,3 C 51 % 1022,2 hPa 0,0 mm 7,3 km/h (2 Bft) NW 315 17,0 C 9,6 km/h (2 Bft)
05.06.2015 14:30 28,6 C 32,3 C 51 % 1022,2 hPa 0,0 mm 7,5 km/h (2 Bft) NW 315 17,4 C 11,1 km/h (2 Bft)
05.06.2015 14:35 28,8 C 32,3 C 50 % 1022,2 hPa 0,0 mm 6,7 km/h (2 Bft) N-NW 337 17,3 C 5,2 km/h (1 Bft)
05.06.2015 14:40 29,2 C 32,8 C 50 % 1022,2 hPa 0,0 mm 5,4 km/h (1 Bft) W-SW 247 17,7 C 0,0 km/h (0 Bft)
05.06.2015 14:45 29,3 C 33,3 C 49 % 1022,2 hPa 0,0 mm 4,4 km/h (1 Bft) NW 315 17,5 C 8,3 km/h (2 Bft)
05.06.2015 14:50 29,5 C 33,3 C 50 % 1022,2 hPa 0,0 mm 6,0 km/h (2 Bft) N-NW 337 18,0 C 4,7 km/h (1 Bft)
05.06.2015 14:55 29,6 C 33,5 C 49 % 1022,2 hPa 0,0 mm 5,2 km/h (1 Bft) N-NO 22 17,7 C 5,2 km/h (1 Bft)
05.06.2015 15:00 30,0 C 34,4 C 49 % 1021,8 hPa 0,0 mm 2,8 km/h (1 Bft) NO 45 18,1 C 8,3 km/h (2 Bft)
05.06.2015 15:05 29,6 C 34,4 C 48 % 1021,8 hPa 0,0 mm 3,9 km/h (1 Bft) NO 45 17,4 C 6,7 km/h (2 Bft)
05.06.2015 15:10 29,2 C 33,9 C 49 % 1021,8 hPa 0,0 mm 8,0 km/h (2 Bft) N-NW 337 17,4 C 17,6 km/h (3 Bft)
05.06.2015 15:15 29,2 C 33,5 C 48 % 1021,8 hPa 0,0 mm 8,3 km/h (2 Bft) NW 315 17,0 C 8,8 km/h (2 Bft)
05.06.2015 15:20 29,2 C 33,3 C 48 % 1021,8 hPa 0,0 mm 8,3 km/h (2 Bft) N-NW 337 17,0 C 4,9 km/h (1 Bft)
05.06.2015 15:25 29,2 C 33,2 C 48 % 1021,8 hPa 0,0 mm 7,8 km/h (2 Bft) N 360 17,0 C 5,4 km/h (1 Bft)
05.06.2015 15:30 29,2 C 33,5 C 48 % 1021,8 hPa 0,0 mm 6,0 km/h (2 Bft) N-NW 337 17,0 C 5,4 km/h (1 Bft)
05.06.2015 15:35 29,2 C 33,7 C 48 % 1021,8 hPa 0,0 mm 6,5 km/h (2 Bft) N-NW 337 17,0 C 15,8 km/h (3 Bft)
05.06.2015 15:40 29,2 C 33,2 C 47 % 1021,5 hPa 0,0 mm 8,0 km/h (2 Bft) W 270 16,7 C 5,4 km/h (1 Bft)
05.06.2015 15:45 29,3 C 33,5 C 48 % 1021,5 hPa 0,0 mm 7,5 km/h (2 Bft) NW 315 17,1 C 9,3 km/h (2 Bft)
05.06.2015 15:50 29,5 C 33,7 C 48 % 1021,5 hPa 0,0 mm 4,1 km/h (1 Bft) N-NO 22 17,3 C 0,0 km/h (0 Bft)
05.06.2015 15:55 29,0 C 33,4 C 47 % 1021,5 hPa 0,0 mm 6,7 km/h (2 Bft) O 90 16,5 C 15,5 km/h (3 Bft)
05.06.2015 16:00 28,3 C 31,4 C 47 % 1021,3 hPa 0,0 mm 7,5 km/h (2 Bft) W-NW 292 15,9 C 7,8 km/h (2 Bft)
05.06.2015 16:05 28,2 C 31,8 C 48 % 1021,3 hPa 0,0 mm 7,3 km/h (2 Bft) N-NO 22 16,1 C 10,1 km/h (2 Bft)
05.06.2015 16:10 28,0 C 32,5 C 47 % 1021,3 hPa 0,0 mm 5,4 km/h (1 Bft) NO 45 15,6 C 3,1 km/h (1 Bft)
05.06.2015 16:15 27,8 C 33,2 C 48 % 1021,3 hPa 0,0 mm 4,7 km/h (1 Bft) NW 315 15,8 C 4,9 km/h (1 Bft)
05.06.2015 16:20 27,6 C 33,6 C 47 % 1021,2 hPa 0,0 mm 4,1 km/h (1 Bft) W 270 15,3 C 8,5 km/h (2 Bft)
05.06.2015 16:25 27,5 C 33,5 C 47 % 1021,2 hPa 0,0 mm 6,0 km/h (2 Bft) W 270 15,2 C 4,1 km/h (1 Bft)
05.06.2015 16:30 27,3 C 33,4 C 46 % 1021,2 hPa 0,0 mm 4,9 km/h (1 Bft) NW 315 14,6 C 4,7 km/h (1 Bft)
05.06.2015 16:35 27,3 C 33,8 C 46 % 1021,2 hPa 0,0 mm 3,1 km/h (1 Bft) NW 315 14,6 C 2,6 km/h (1 Bft)
05.06.2015 16:40 27,4 C 34,4 C 46 % 1020,9 hPa 0,0 mm 2,1 km/h (1 Bft) W-SW 247 14,7 C 0,0 km/h (0 Bft)
05.06.2015 16:45 27,3 C 34,7 C 46 % 1020,9 hPa 0,0 mm 2,6 km/h (1 Bft) W 270 14,6 C 12,2 km/h (2 Bft)
05.06.2015 16:50 27,3 C 34,0 C 47 % 1020,9 hPa 0,0 mm 5,7 km/h (1 Bft) W 270 15,0 C 7,5 km/h (2 Bft)
05.06.2015 16:55 27,4 C 33,6 C 47 % 1020,9 hPa 0,0 mm 7,0 km/h (2 Bft) W-NW 292 15,1 C 7,5 km/h (2 Bft)
05.06.2015 17:00 27,4 C 32,8 C 47 % 1020,9 hPa 0,0 mm 7,0 km/h (2 Bft) N-NW 337 15,1 C 7,5 km/h (2 Bft)
05.06.2015 17:05 27,3 C 31,8 C 48 % 1020,9 hPa 0,0 mm 6,2 km/h (2 Bft) N-NO 22 15,3 C 7,8 km/h (2 Bft)
05.06.2015 17:10 27,3 C 30,3 C 47 % 1020,9 hPa 0,0 mm 5,4 km/h (1 Bft) NW 315 15,0 C 7,3 km/h (2 Bft)
05.06.2015 17:15 27,3 C 29,7 C 48 % 1020,9 hPa 0,0 mm 6,5 km/h (2 Bft) NO 45 15,3 C 3,6 km/h (1 Bft)
05.06.2015 17:20 27,3 C 29,3 C 48 % 1020,7 hPa 0,0 mm 5,7 km/h (1 Bft) N-NO 22 15,3 C 4,1 km/h (1 Bft)
05.06.2015 17:25 27,3 C 29,1 C 48 % 1020,7 hPa 0,0 mm 4,1 km/h (1 Bft) N-NO 22 15,3 C 5,7 km/h (1 Bft)
05.06.2015 17:30 27,3 C 28,9 C 47 % 1020,7 hPa 0,0 mm 5,7 km/h (1 Bft) NO 45 15,0 C 12,4 km/h (3 Bft)
05.06.2015 17:35 27,2 C 28,7 C 48 % 1020,7 hPa 0,0 mm 6,7 km/h (2 Bft) N-NO 22 15,2 C 7,0 km/h (2 Bft)
05.06.2015 17:40 27,1 C 28,6 C 47 % 1020,4 hPa 0,0 mm 6,7 km/h (2 Bft) NO 45 14,8 C 7,0 km/h (2 Bft)
05.06.2015 17:45 27,1 C 28,5 C 48 % 1020,4 hPa 0,0 mm 5,4 km/h (1 Bft) O-NO 67 15,1 C 6,7 km/h (2 Bft)
05.06.2015 17:50 27,1 C 28,6 C 48 % 1020,4 hPa 0,0 mm 4,7 km/h (1 Bft) N-NO 22 15,1 C 14,0 km/h (3 Bft)
05.06.2015 17:55 27,2 C 28,6 C 48 % 1020,4 hPa 0,0 mm 5,7 km/h (1 Bft) O-NO 67 15,2 C 5,2 km/h (1 Bft)
05.06.2015 18:00 27,2 C 28,5 C 48 % 1020,4 hPa 0,0 mm 6,2 km/h (2 Bft) NO 45 15,2 C 0,0 km/h (0 Bft)
05.06.2015 18:05 27,2 C 28,4 C 48 % 1020,4 hPa 0,0 mm 6,5 km/h (2 Bft) N-NW 337 15,2 C 12,2 km/h (2 Bft)
05.06.2015 18:10 27,2 C 28,4 C 48 % 1020,4 hPa 0,0 mm 6,2 km/h (2 Bft) N-NW 337 15,2 C 10,4 km/h (2 Bft)
05.06.2015 18:15 27,1 C 28,3 C 47 % 1020,4 hPa 0,0 mm 6,2 km/h (2 Bft) N 360 14,8 C 6,2 km/h (2 Bft)
05.06.2015 18:20 26,9 C 28,1 C 48 % 1020,2 hPa 0,0 mm 6,5 km/h (2 Bft) NW 315 14,9 C 6,2 km/h (2 Bft)
05.06.2015 18:25 26,9 C 28,1 C 46 % 1020,2 hPa 0,0 mm 5,4 km/h (1 Bft) NO 45 14,3 C 7,8 km/h (2 Bft)
05.06.2015 18:30 27,0 C 28,6 C 47 % 1020,2 hPa 0,0 mm 4,4 km/h (1 Bft) O-NO 67 14,7 C 10,9 km/h (2 Bft)
05.06.2015 18:35 26,8 C 29,5 C 47 % 1020,2 hPa 0,0 mm 3,4 km/h (1 Bft) O-SO 112 14,5 C 8,3 km/h (2 Bft)
05.06.2015 18:40 26,8 C 30,5 C 48 % 1020,2 hPa 0,0 mm 4,7 km/h (1 Bft) N-NO 22 14,9 C 6,2 km/h (2 Bft)
05.06.2015 18:45 26,9 C 31,0 C 48 % 1020,2 hPa 0,0 mm 5,4 km/h (1 Bft) N-NW 337 14,9 C 9,1 km/h (2 Bft)
05.06.2015 18:50 26,9 C 30,9 C 48 % 1020,2 hPa 0,0 mm 7,8 km/h (2 Bft) N-NO 22 14,9 C 14,0 km/h (3 Bft)
05.06.2015 18:55 26,8 C 30,8 C 49 % 1020,2 hPa 0,0 mm 8,0 km/h (2 Bft) NO 45 15,2 C 5,2 km/h (1 Bft)
05.06.2015 19:00 26,7 C 30,6 C 49 % 1020,2 hPa 0,0 mm 6,2 km/h (2 Bft) NO 45 15,1 C 0,0 km/h (0 Bft)
05.06.2015 19:05 26,4 C 30,8 C 50 % 1020,2 hPa 0,0 mm 5,2 km/h (1 Bft) O-SO 112 15,1 C 5,2 km/h (1 Bft)
05.06.2015 19:10 26,5 C 30,7 C 50 % 1020,2 hPa 0,0 mm 4,1 km/h (1 Bft) NO 45 15,2 C 4,1 km/h (1 Bft)
05.06.2015 19:15 26,4 C 30,5 C 50 % 1020,2 hPa 0,0 mm 4,9 km/h (1 Bft) O-NO 67 15,1 C 6,5 km/h (2 Bft)
05.06.2015 19:20 26,3 C 30,3 C 50 % 1020,2 hPa 0,0 mm 4,7 km/h (1 Bft) O 90 15,0 C 2,8 km/h (1 Bft)
05.06.2015 19:25 26,2 C 30,4 C 50 % 1020,2 hPa 0,0 mm 3,9 km/h (1 Bft) NO 45 14,9 C 7,0 km/h (2 Bft)
05.06.2015 19:30 25,8 C 29,5 C 51 % 1020,2 hPa 0,0 mm 4,9 km/h (1 Bft) N-NO 22 14,9 C 7,3 km/h (2 Bft)
05.06.2015 19:35 25,5 C 28,4 C 53 % 1020,2 hPa 0,0 mm 4,7 km/h (1 Bft) S 180 15,2 C 3,1 km/h (1 Bft)
05.06.2015 19:40 25,4 C 27,8 C 54 % 1020,2 hPa 0,0 mm 3,6 km/h (1 Bft) NO 45 15,4 C 7,3 km/h (2 Bft)
05.06.2015 19:45 25,6 C 28,0 C 54 % 1020,2 hPa 0,0 mm 3,6 km/h (1 Bft) O 90 15,6 C 3,4 km/h (1 Bft)
05.06.2015 19:50 25,6 C 28,6 C 55 % 1020,2 hPa 0,0 mm 2,1 km/h (1 Bft) N-NO 22 15,9 C 0,0 km/h (0 Bft)
05.06.2015 19:55 25,5 C 28,9 C 55 % 1020,2 hPa 0,0 mm 0,3 km/h (0 Bft) O-NO 67 15,8 C 0,0 km/h (0 Bft)
05.06.2015 20:00 25,5 C 29,2 C 55 % 1020,1 hPa 0,0 mm 0,5 km/h (0 Bft) O-SO 112 15,8 C 0,0 km/h (0 Bft)
05.06.2015 20:05 25,2 C 29,0 C 56 % 1020,1 hPa 0,0 mm 0,5 km/h (0 Bft) O-NO 67 15,8 C 0,0 km/h (0 Bft)
05.06.2015 20:10 25,1 C 28,7 C 56 % 1020,1 hPa 0,0 mm 0,3 km/h (0 Bft) NO 45 15,7 C 0,0 km/h (0 Bft)
05.06.2015 20:15 24,9 C 28,6 C 57 % 1020,1 hPa 0,0 mm 0,0 km/h (0 Bft) O-SO 112 15,8 C 0,0 km/h (0 Bft)
05.06.2015 20:20 24,6 C 28,1 C 57 % 1020,0 hPa 0,0 mm 0,0 km/h (0 Bft) O 90 15,5 C 0,0 km/h (0 Bft)
05.06.2015 20:25 24,4 C 27,8 C 58 % 1020,0 hPa 0,0 mm 0,0 km/h (0 Bft) O-SO 112 15,6 C 0,0 km/h (0 Bft)
05.06.2015 20:30 24,3 C 27,4 C 58 % 1020,0 hPa 0,0 mm 0,0 km/h (0 Bft) SO 135 15,5 C 0,0 km/h (0 Bft)
05.06.2015 20:35 24,1 C 27,1 C 59 % 1020,0 hPa 0,0 mm 0,0 km/h (0 Bft) O-SO 112 15,6 C 0,0 km/h (0 Bft)
05.06.2015 20:40 23,6 C 26,5 C 59 % 1019,9 hPa 0,0 mm 0,0 km/h (0 Bft) O 90 15,1 C 0,0 km/h (0 Bft)
05.06.2015 20:45 23,4 C 26,2 C 60 % 1019,9 hPa 0,0 mm 0,0 km/h (0 Bft) SO 135 15,2 C 0,0 km/h (0 Bft)
05.06.2015 20:50 23,1 C 25,5 C 61 % 1019,9 hPa 0,0 mm 0,0 km/h (0 Bft) SO 135 15,2 C 0,0 km/h (0 Bft)
05.06.2015 20:55 22,9 C 24,7 C 63 % 1019,9 hPa 0,0 mm 0,5 km/h (0 Bft) S-SO 157 15,5 C 0,0 km/h (0 Bft)
05.06.2015 21:00 22,3 C 23,7 C 65 % 1019,9 hPa 0,0 mm 0,5 km/h (0 Bft) SO 135 15,4 C 0,0 km/h (0 Bft)
05.06.2015 21:05 22,0 C 23,1 C 65 % 1019,9 hPa 0,0 mm 0,0 km/h (0 Bft) O-SO 112 15,1 C 0,0 km/h (0 Bft)
05.06.2015 21:10 22,0 C 22,4 C 66 % 1019,9 hPa 0,0 mm 0,8 km/h (0 Bft) S-SO 157 15,3 C 2,6 km/h (1 Bft)
05.06.2015 21:15 21,8 C 22,2 C 67 % 1019,9 hPa 0,0 mm 0,8 km/h (0 Bft) S-SO 157 15,4 C 0,0 km/h (0 Bft)
05.06.2015 21:20 21,8 C 21,9 C 67 % 1019,8 hPa 0,0 mm 0,5 km/h (0 Bft) S-SO 157 15,4 C 0,0 km/h (0 Bft)
05.06.2015 21:25 21,6 C 21,6 C 68 % 1019,8 hPa 0,0 mm 0,8 km/h (0 Bft) S-SO 157 15,4 C 3,1 km/h (1 Bft)
05.06.2015 21:30 21,3 C 21,4 C 68 % 1019,8 hPa 0,0 mm 0,5 km/h (0 Bft) SO 135 15,1 C 0,0 km/h (0 Bft)
05.06.2015 21:35 21,2 C 21,2 C 69 % 1019,8 hPa 0,0 mm 0,3 km/h (0 Bft) SO 135 15,3 C 0,0 km/h (0 Bft)
05.06.2015 21:40 20,8 C 20,9 C 70 % 1019,9 hPa 0,0 mm 0,0 km/h (0 Bft) S 180 15,1 C 0,0 km/h (0 Bft)
05.06.2015 21:45 20,5 C 20,6 C 70 % 1019,9 hPa 0,0 mm 0,0 km/h (0 Bft) S-SO 157 14,8 C 0,0 km/h (0 Bft)
05.06.2015 21:50 20,0 C 20,2 C 71 % 1019,9 hPa 0,0 mm 0,0 km/h (0 Bft) W-NW 292 14,6 C 0,0 km/h (0 Bft)
05.06.2015 21:55 19,7 C 19,8 C 71 % 1019,9 hPa 0,0 mm 0,0 km/h (0 Bft) S 180 14,3 C 0,0 km/h (0 Bft)
05.06.2015 22:00 19,5 C 19,4 C 72 % 1020,2 hPa 0,0 mm 0,0 km/h (0 Bft) S-SO 157 14,3 C 0,0 km/h (0 Bft)
05.06.2015 22:05 19,3 C 19,2 C 72 % 1020,2 hPa 0,0 mm 0,0 km/h (0 Bft) S-SO 157 14,1 C 0,0 km/h (0 Bft)
05.06.2015 22:10 19,5 C 19,2 C 74 % 1020,2 hPa 0,0 mm 0,0 km/h (0 Bft) S-SO 157 14,7 C 0,0 km/h (0 Bft)
05.06.2015 22:15 19,5 C 19,5 C 73 % 1020,2 hPa 0,0 mm 0,0 km/h (0 Bft) S-SO 157 14,5 C 2,6 km/h (1 Bft)
05.06.2015 22:20 19,1 C 19,1 C 73 % 1020,2 hPa 0,0 mm 0,3 km/h (0 Bft) O-NO 67 14,1 C 0,0 km/h (0 Bft)
05.06.2015 22:25 18,9 C 18,8 C 75 % 1020,2 hPa 0,0 mm 0,0 km/h (0 Bft) O-NO 67 14,4 C 0,0 km/h (0 Bft)
05.06.2015 22:30 18,8 C 18,6 C 75 % 1020,2 hPa 0,0 mm 0,0 km/h (0 Bft) S 180 14,3 C 0,0 km/h (0 Bft)
05.06.2015 22:35 18,7 C 18,5 C 76 % 1020,2 hPa 0,0 mm 0,0 km/h (0 Bft) S-SO 157 14,4 C 0,0 km/h (0 Bft)
05.06.2015 22:40 18,2 C 18,1 C 75 % 1020,0 hPa 0,0 mm 0,0 km/h (0 Bft) S 180 13,7 C 0,0 km/h (0 Bft)
05.06.2015 22:45 17,9 C 17,8 C 75 % 1020,0 hPa 0,0 mm 0,0 km/h (0 Bft) S 180 13,4 C 0,0 km/h (0 Bft)
05.06.2015 22:50 17,7 C 17,5 C 76 % 1020,0 hPa 0,0 mm 0,0 km/h (0 Bft) S-SO 157 13,4 C 0,0 km/h (0 Bft)
05.06.2015 22:55 17,8 C 17,6 C 77 % 1020,0 hPa 0,0 mm 0,0 km/h (0 Bft) S-SW 202 13,7 C 0,0 km/h (0 Bft)
05.06.2015 23:00 17,6 C 17,4 C 77 % 1020,1 hPa 0,0 mm 0,0 km/h (0 Bft) W-SW 247 13,5 C 0,0 km/h (0 Bft)
05.06.2015 23:05 17,6 C 17,4 C 77 % 1020,1 hPa 0,0 mm 0,0 km/h (0 Bft) SO 135 13,5 C 0,0 km/h (0 Bft)
05.06.2015 23:10 17,9 C 17,6 C 78 % 1020,1 hPa 0,0 mm 0,0 km/h (0 Bft) S-SO 157 14,0 C 0,0 km/h (0 Bft)
05.06.2015 23:15 17,8 C 17,6 C 78 % 1020,1 hPa 0,0 mm 0,0 km/h (0 Bft) SO 135 13,9 C 0,0 km/h (0 Bft)
05.06.2015 23:20 17,5 C 17,3 C 78 % 1019,9 hPa 0,0 mm 0,0 km/h (0 Bft) SO 135 13,6 C 0,0 km/h (0 Bft)
05.06.2015 23:25 17,2 C 17,1 C 78 % 1019,9 hPa 0,0 mm 0,0 km/h (0 Bft) SO 135 13,3 C 0,0 km/h (0 Bft)
05.06.2015 23:30 17,0 C 16,9 C 78 % 1019,9 hPa 0,0 mm 0,0 km/h (0 Bft) SO 135 13,1 C 0,0 km/h (0 Bft)
05.06.2015 23:35 16,8 C 16,7 C 78 % 1019,9 hPa 0,0 mm 0,0 km/h (0 Bft) NW 315 12,9 C 0,0 km/h (0 Bft)
05.06.2015 23:40 16,8 C 16,6 C 79 % 1019,9 hPa 0,0 mm 0,0 km/h (0 Bft) NO 45 13,1 C 0,0 km/h (0 Bft)
05.06.2015 23:45 16,9 C 16,7 C 80 % 1019,9 hPa 0,0 mm 0,0 km/h (0 Bft) O-NO 67 13,4 C 0,0 km/h (0 Bft)
05.06.2015 23:50 16,7 C 16,6 C 80 % 1019,9 hPa 0,0 mm 0,0 km/h (0 Bft) NO 45 13,2 C 0,0 km/h (0 Bft)
05.06.2015 23:55 16,5 C 16,4 C 80 % 1019,9 hPa 0,0 mm 0,0 km/h (0 Bft) NW 315 13,0 C 0,0 km/h (0 Bft)
_ Min-Zeit 05:25 05:25 18:25 21:35 - 23:55 - - 05:25 23:55
Minimum _ 11,7 C 11,6 C 46 % 1019,8 hPa - 0,0 km/h (0 Bft) - - 9,6 C 0,0 km/h (0 Bft)
_ Max-Zeit 15:00 16:45 06:10 12:15 23:55 14:00 - - 15:00 15:10
Maximum _ 30,0 C 34,7 C 88 % 1023,0 hPa 0,0 mm 8,8 km/h
W (2 Bft)
- - 18,1 C 17,6 km/h
N-NW (3 Bft)
Durchschnitt _ 21,4 C 24,3 C 66 % 1021,6 hPa #0,0 mm 2,5 km/h (1 Bft) N-NO - 14,3 C 3,3 km/h (1 Bft)